Weather History for Galliano, LA

Change the Weather History Date:

Friday, February 22, 2013

  Actual Average (KAXO) Record (KAXO)
Temperature  
Mean Temperature 58 °F -  
Max Temperature 64 °F 61 °F 78 °F (2008)
Min Temperature 53 °F 57 °F 39 °F (1999)
Degree Days  
Heating Degree Days 6    
Growing Degree Days 8 (Base 50)    
Moisture  
Dew Point 60 °F    
Average Humidity 97    
Maximum Humidity 100    
Minimum Humidity 88    
Precipitation  
Precipitation 0.00 in - - ()
Sea Level Pressure  
Sea Level Pressure 29.90 in    
Wind  
Wind Speed 8 mph (NE)    
Max Wind Speed 14 mph    
Max Gust Speed 20 mph    
Visibility 5 miles    
Events Fog , Rain , Thunderstorm    
Averages and records for this station are not official NWS values.
T = Trace of Precipitation, MM = Missing Value Source: NWS Daily Summary

Daily Weather History Graph

Daily Weather History Graph

Search for Another Location

Airport:

Trip Planner

Search our weather history database for the weather conditions in past years. The results will help you decide how hot, cold, wet, or windy it might be!

Date:

Astronomy

Feb. 22, 2013 Rise Set
Actual Time 6:33 AM CST 5:55 PM CST
Civil Twilight 6:09 AM CST 6:19 PM CST
Nautical Twilight 5:41 AM CST 6:47 PM CST
Astronomical Twilight 5:14 AM CST 7:15 PM CST
Moon 3:15 PM CST (2/22) 4:09 AM CST (2/22)
Length of Visible Light 12h 10m
Length of Day
11h 22m
Waxing Gibbous, 90% of the Moon is Illuminated
Feb 22
Waxing Gibbous
Feb 25
Full
Mar 4
Last Quarter
Mar 11
New
Mar 19
First Quarter

Hourly Weather History & Observations

Time (CST) Temp. Dew Point Humidity Pressure Visibility Wind Dir Wind Speed Gust Speed Precip Events Conditions
12:15 AM 64.4 °F 62.6 °F 94% 29.88 in 7.0 mi South 8.1 mph - N/A   Overcast
12:35 AM 62.6 °F 62.6 °F 100% 29.89 in 10.0 mi South 8.1 mph - N/A   Overcast
12:55 AM 62.6 °F 62.6 °F 100% 29.88 in 10.0 mi South 11.5 mph 18.4 mph N/A   Overcast
1:15 AM 62.6 °F 62.6 °F 100% 29.88 in 7.0 mi South 9.2 mph - N/A   Overcast
1:35 AM 62.6 °F 62.6 °F 100% 29.88 in 5.0 mi South 9.2 mph - N/A   Overcast
1:55 AM 62.6 °F 62.6 °F 100% 29.87 in 7.0 mi South 8.1 mph - N/A   Overcast
2:15 AM 62.6 °F 62.6 °F 100% 29.87 in 7.0 mi South 9.2 mph - N/A   Overcast
2:35 AM 62.6 °F 62.6 °F 100% 29.87 in 5.0 mi South 9.2 mph - N/A   Overcast
2:55 AM 62.6 °F 62.6 °F 100% 29.87 in 5.0 mi South 9.2 mph - N/A   Overcast
3:15 AM 62.6 °F 62.6 °F 100% 29.87 in 5.0 mi South 9.2 mph - N/A   Overcast
3:35 AM 62.6 °F 62.6 °F 100% 29.86 in 4.0 mi South 6.9 mph - N/A   Overcast
3:55 AM 62.6 °F 62.6 °F 100% 29.86 in 4.0 mi South 8.1 mph - N/A   Overcast
4:15 AM 62.6 °F 62.6 °F 100% 29.86 in 5.0 mi South 6.9 mph - N/A   Overcast
4:35 AM 62.6 °F 62.6 °F 100% 29.87 in 4.0 mi South 8.1 mph - N/A   Overcast
4:55 AM 62.6 °F 62.6 °F 100% 29.87 in 4.0 mi South 6.9 mph - N/A   Overcast
5:15 AM 62.6 °F 62.6 °F 100% 29.87 in 4.0 mi South 5.8 mph - N/A   Overcast
5:35 AM 62.6 °F 62.6 °F 100% 29.88 in 5.0 mi South 8.1 mph - N/A   Overcast
6:15 AM 62.6 °F 62.6 °F 100% 29.89 in 4.0 mi South 4.6 mph - N/A   Overcast
6:35 AM 62.6 °F 60.8 °F 94% 29.89 in 4.0 mi Calm Calm - N/A   Overcast
6:55 AM 60.8 °F 60.8 °F 100% 29.89 in 2.0 mi Calm Calm - N/A   Overcast
7:15 AM 62.6 °F 60.8 °F 94% 29.90 in 1.5 mi Calm Calm - N/A   Overcast
7:35 AM 62.6 °F 62.6 °F 100% 29.91 in 1.8 mi Calm Calm - N/A   Overcast
7:55 AM 62.6 °F 62.6 °F 100% 29.92 in 2.0 mi Calm Calm - N/A   Overcast
8:15 AM 62.6 °F 62.6 °F 100% 29.93 in 3.0 mi Calm Calm - N/A   Overcast
8:35 AM 62.6 °F 62.6 °F 100% 29.94 in 2.0 mi Calm Calm - N/A   Overcast
8:55 AM 60.8 °F 59.0 °F 94% 29.94 in 2.0 mi NNW 6.9 mph - N/A   Overcast
9:15 AM 59.0 °F 59.0 °F 100% 29.94 in 0.5 mi NNE 10.4 mph - N/A Fog Fog
9:35 AM 57.2 °F 57.2 °F 100% 29.94 in 1.2 mi North 10.4 mph - N/A   Overcast
9:55 AM 57.2 °F 57.2 °F 100% 29.95 in 1.2 mi NNE 9.2 mph - N/A   Mist
10:15 AM 57.2 °F 57.2 °F 100% 29.95 in 2.5 mi North 10.4 mph 16.1 mph N/A   Mist
10:35 AM 57.2 °F 57.2 °F 100% 29.95 in 2.5 mi North 8.1 mph - N/A Rain Light Rain
10:55 AM 57.2 °F 57.2 °F 100% 29.96 in 2.0 mi NNE 10.4 mph - N/A Rain Light Rain
11:15 AM 55.4 °F 55.4 °F 100% 29.95 in 2.5 mi NNE 10.4 mph - N/A Rain Light Rain
11:35 AM 55.4 °F 55.4 °F 100% 29.94 in 4.0 mi NNE 10.4 mph 19.6 mph N/A Rain Light Rain
11:55 AM 55.4 °F 55.4 °F 100% 29.94 in 10.0 mi North 13.8 mph - N/A   Unknown
12:15 PM 60.8 °F 59.0 °F 94% 29.94 in 7.0 mi NNE 11.5 mph - N/A Rain Light Rain
12:35 PM 62.6 °F 60.8 °F 94% 29.93 in 10.0 mi NNE 9.2 mph - N/A   Overcast
12:55 PM 62.6 °F 59.0 °F 88% 29.92 in 10.0 mi NNE 9.2 mph - N/A   Overcast
1:15 PM 62.6 °F 59.0 °F 88% 29.91 in 10.0 mi NNE 9.2 mph - N/A Thunderstorm Overcast
1:35 PM 62.6 °F 59.0 °F 88% 29.93 in 10.0 mi NE 3.5 mph - N/A Thunderstorm Thunderstorm
1:55 PM 62.6 °F 60.8 °F 94% 29.90 in 1.5 mi North - - N/A Rain , Thunderstorm Heavy Thunderstorms and Rain
2:15 PM 62.6 °F 60.8 °F 94% 29.90 in 10.0 mi NNE 10.4 mph - N/A   Overcast
2:35 PM 62.6 °F 60.8 °F 94% 29.89 in 10.0 mi NE 13.8 mph 17.3 mph N/A   Overcast
2:55 PM 62.6 °F 60.8 °F 94% 29.89 in 10.0 mi NNE 13.8 mph 18.4 mph N/A   Overcast
3:15 PM 62.6 °F 60.8 °F 94% 29.88 in 10.0 mi NNE 12.7 mph - N/A   Overcast
3:35 PM 62.6 °F 59.0 °F 88% 29.88 in 10.0 mi NE 9.2 mph 17.3 mph N/A   Overcast
3:55 PM 62.6 °F 60.8 °F 94% 29.88 in 10.0 mi NNE 6.9 mph - N/A   Overcast
4:15 PM 62.6 °F 60.8 °F 94% 29.89 in 10.0 mi NNE 8.1 mph - N/A Rain Light Rain
4:35 PM 62.6 °F 60.8 °F 94% 29.88 in 5.0 mi NE 8.1 mph - N/A Rain Light Rain
4:55 PM 62.6 °F 60.8 °F 94% 29.88 in 7.0 mi NE 8.1 mph - N/A   Overcast
5:15 PM 62.6 °F 60.8 °F 94% 29.88 in 10.0 mi NE 5.8 mph - N/A   Overcast
5:35 PM 62.6 °F 60.8 °F 94% 29.89 in 10.0 mi NE 5.8 mph - N/A   Overcast
5:55 PM 62.6 °F 60.8 °F 94% 29.88 in 10.0 mi NE 6.9 mph - N/A   Overcast
6:15 PM 62.6 °F 60.8 °F 94% 29.88 in 7.0 mi NE 8.1 mph - N/A   Overcast
6:35 PM 62.6 °F 60.8 °F 94% 29.88 in 7.0 mi NNE 6.9 mph - N/A   Overcast
6:55 PM 60.8 °F 60.8 °F 100% 29.88 in 5.0 mi ENE 8.1 mph - N/A   Overcast
7:15 PM 60.8 °F 59.0 °F 94% 29.88 in 2.5 mi ENE 8.1 mph - N/A   Overcast
7:35 PM 59.0 °F 57.2 °F 94% 29.88 in 1.2 mi NNE 3.5 mph - N/A   Overcast
7:55 PM 55.4 °F 55.4 °F 100% 29.88 in 0.8 mi NE 5.8 mph - N/A   Overcast
8:15 PM 55.4 °F 55.4 °F 100% 29.88 in 0.8 mi NNE 4.6 mph - N/A   Overcast
8:35 PM 55.4 °F 55.4 °F 100% 29.89 in 0.5 mi North 6.9 mph - N/A Fog Fog
8:55 PM 55.4 °F 55.4 °F 100% 29.90 in 0.8 mi NNE 6.9 mph - N/A   Overcast
9:15 PM 55.4 °F 55.4 °F 100% 29.90 in 1.0 mi North 8.1 mph - N/A Rain Light Rain
9:35 PM 55.4 °F 55.4 °F 100% 29.91 in 1.8 mi North 8.1 mph - N/A   Drizzle
9:55 PM 53.6 °F 53.6 °F 100% 29.90 in 3.0 mi NNE 5.8 mph - N/A   Drizzle
10:15 PM 53.6 °F 53.6 °F 100% 29.89 in 2.0 mi NNE 3.5 mph - N/A   Light Drizzle
10:35 PM 53.6 °F 53.6 °F 100% 29.89 in 1.5 mi NNW 3.5 mph - N/A   Light Drizzle
10:55 PM 53.6 °F 53.6 °F 100% 29.90 in 1.8 mi NNW 8.1 mph - N/A   Light Drizzle
11:15 PM 53.6 °F 53.6 °F 100% 29.90 in 3.0 mi NNW 10.4 mph - N/A Rain Light Rain
11:55 PM 53.6 °F 53.6 °F 100% 29.90 in 5.0 mi NNW 6.9 mph - N/A Rain Rain